Temp
9 9 8 4 6 5 6 8 10 17 19 18 19 19 20 21 21 21 22 24 23 15 10 10 15 17 17 17 17 17 17 16 16 16 16 16 16 17 17 17 17 16 16 16
8 8 7 7 7 7 7 8 10 13 19 19 20 19 20 20 20 18 19 23 15 11 10 9 9 14 17 17 17 17 16 16 16 16 16 16 15 16 16 16 16 16 16 16
6 7 7 6 7 5 8 7 9 10 14 18 19 18 19 17 15 12 8 8 10 9 8 8 7 6 10 14 16 16 16 16 16 16 15 15 15 15 15 16 16 16 16 16
6 6 6 6 6 4 5 11 8 8 9 13 18 15 18 16 15 12 6 4 4 5 5 5 5 4 5 7 13 15 16 16 16 16 15 15 15 15 16 16 16 16 16 16
5 4 4 4 3 4 4 6 6 6 8 9 15 16 19 19 15 12 5 3 2 2 2 3 2 2 3 5 8 11 14 15 15 15 16 16 15 15 15 15 16 16 15 15
4 4 4 2 3 4 3 7 9 9 8 10 13 15 17 19 16 9 3 1 1 0 1 1 1 1 1 3 5 7 10 13 15 15 15 15 16 16 15 15 15 15 15 15
4 3 3 2 2 5 2 5 7 8 8 11 15 14 5 5 6 7 1 -0 -1 -1 -1 -1 -0 -0 0 0 2 4 6 9 12 14 15 15 16 16 15 15 14 14 15 15
1 1 1 1 -1 -2 0 1 5 8 9 11 14 13 4 2 1 0 -1 -2 -2 -2 -2 -2 -2 -2 -2 -1 -0 2 3 5 9 11 12 13 14 15 15 16 15 15 15 15
-1 1 2 0 -0 -1 -1 1 -1 1 6 8 5 0 2 1 -0 -1 -2 -3 -3 -4 -4 -3 -4 -4 -3 -3 -2 -1 1 2 5 7 9 10 12 13 15 15 16 16 16 15
-0 -1 2 1 1 -0 -2 -2 0 1 5 9 4 0 0 1 -1 -2 -3 -4 -4 -4 -4 -4 -5 -5 -5 -4 -4 -3 -1 0 2 4 6 8 9 11 12 13 14 14 14 15
1 -0 1 2 -3 -3 -2 -3 -3 -2 0 4 6 -1 -0 -0 -1 -2 -3 -4 -4 -5 -5 -5 -5 -6 -6 -5 -5 -4 -3 -1 1 2 4 5 7 8 9 10 11 12 13 13
1 -0 -1 -1 -3 -2 -2 -3 -4 -3 1 2 2 -2 -2 -2 -2 -2 -2 -3 -4 -5 -5 -5 -6 -6 -6 -6 -6 -6 -5 -4 -2 0 2 3 4 6 7 7 8 9 10 10
1 1 -0 -1 -2 -0 -2 -2 -4 -4 -3 -0 1 -2 -2 -2 -3 -3 -3 -3 -4 -4 -5 -5 -6 -6 -7 -7 -7 -6 -6 -6 -4 -2 -1 0 1 3 4 5 6 8 9 9
1 -0 -1 -2 -3 -2 -3 -3 -4 -4 -1 -2 -2 -4 -4 -4 -4 -4 -3 -4 -4 -4 -5 -5 -6 -6 -7 -7 -7 -7 -7 -7 -6 -4 -3 -2 -2 -0 1 3 5 6 7 8
-0 -2 -1 -2 -2 -2 -2 -3 -4 -5 -5 -3 -4 -5 -5 -5 -5 -5 -5 -4 -4 -4 -5 -5 -5 -6 -7 -7 -7 -7 -7 -7 -6 -6 -5 -4 -3 -2 -1 2 4 5 6 6
-0 -2 -1 -2 -1 -1 -2 -3 -3 -4 -5 -5 -5 -5 -5 -5 -5 -6 -6 -6 -5 -5 -5 -5 -6 -6 -7 -7 -7 -7 -7 -7 -7 -7 -6 -6 -4 -3 -3 -1 1 2 4 5
-1 -2 -1 -1 -1 -1 -2 -5 -4 -4 -5 -5 -4 -6 -5 -5 -6 -7 -7 -6 -6 -6 -6 -6 -6 -7 -7 -7 -7 -7 -7 -7 -7 -7 -7 -6 -6 -4 -4 -2 -1 1 2 3
-3 -2 -1 -2 -1 -2 -4 -3 -4 -4 -5 -5 -5 -5 -5 -5 -6 -6 -7 -7 -7 -7 -7 -7 -7 -7 -7 -7 -7 -6 -6 -7 -7 -7 -7 -7 -6 -5 -4 -3 -2 -1 -0 1
-3 -3 -3 -3 -1 -3 -3 -4 -5 -5 -5 -5 -5 -5 -5 -5 -5 -6 -6 -6 -7 -7 -8 -8 -8 -7 -7 -7 -7 -6 -6 -6 -6 -7 -6 -6 -6 -6 -5 -3 -3 -2 -2 -0
-1 -3 -3 -2 -3 -2 -4 -4 -4 -5 -4 -5 -5 -5 -6 -5 -5 -6 -6 -6 -6 -7 -7 -7 -8 -8 -7 -7 -7 -6 -6 -6 -7 -7 -6 -6 -6 -5 -5 -4 -4 -3 -2 -1
-3 -2 -3 -2 -2 -3 -4 -4 -5 -5 -5 -5 -6 -6 -6 -6 -6 -6 -6 -6 -7 -7 -7 -8 -7 -8 -8 -8 -8 -7 -7 -7 -8 -7 -7 -6 -6 -5 -5 -5 -4 -3 -3 -2
-5 -5 -2 -2 -3 -3 -4 -5 -5 -6 -6 -6 -6 -7 -7 -7 -7 -7 -7 -7 -7 -8 -8 -8 -8 -8 -8 -9 -9 -8 -8 -8 -8 -8 -7 -6 -6 -5 -5 -5 -4 -3 -3 -2
-4 -5 -5 -5 -3 -4 -5 -6 -6 -8 -8 -7 -7 -7 -8 -8 -7 -7 -7 -8 -8 -8 -8 -8 -8 -8 -8 -9 -9 -9 -9 -9 -9 -8 -7 -7 -6 -6 -6 -5 -5 -4 -3 -2
-4 -8 -6 -7 -4 -5 -6 -7 -8 -9 -9 -8 -9 -10 -9 -9 -8 -8 -8 -9 -9 -9 -9 -9 -9 -9 -9 -9 -9 -10 -10 -10 -9 -8 -7 -7 -7 -6 -6 -6 -5 -5 -4 -4
-6 -8 -6 -6 -5 -6 -6 -7 -7 -9 -10 -11 -11 -12 -11 -10 -10 -10 -10 -10 -10 -10 -10 -10 -10 -10 -10 -10 -10 -10 -10 -10 -10 -9 -8 -8 -7 -7 -7 -6 -6 -6 -5 -6
-7 -5 -5 -4 -5 -5 -5 -7 -10 -12 -12 -12 -12 -12 -12 -12 -13 -12 -11 -11 -12 -12 -11 -11 -11 -11 -11 -11 -11 -11 -11 -11 -10 -9 -9 -8 -8 -8 -7 -7 -6 -6 -6 -6
Height
759 755 752 777 767 764 756 743 730 692 690 702 695 700 703 705 708 709 709 708 714 731 741 741 742 746 752 759 763 771 778 784 791 798 805 811 816 823 828 833 837 843 847 852
764 755 768 765 761 756 751 745 728 707 681 685 684 694 694 700 708 716 715 706 725 738 745 745 745 746 749 756 763 769 776 781 788 795 802 808 814 821 827 832 836 840 845 850
776 768 770 767 758 766 742 745 734 729 701 682 682 690 693 705 719 732 743 744 739 743 750 751 751 751 751 754 761 766 774 780 786 792 799 807 815 821 826 830 834 838 842 848
776 776 774 768 762 773 759 729 739 736 732 697 675 696 689 702 715 730 754 758 758 757 760 759 758 758 759 757 760 765 771 778 784 788 795 801 807 814 821 826 832 837 842 845
786 787 786 782 785 780 767 754 749 747 733 728 683 690 671 684 708 729 759 766 768 770 767 768 767 763 766 763 763 766 768 775 781 786 793 799 806 813 818 824 830 835 839 842
792 793 792 798 783 776 776 748 731 729 732 713 689 680 681 672 693 735 770 775 777 779 776 775 774 773 769 770 767 769 770 773 777 783 791 797 803 809 815 821 827 832 836 841
792 796 797 799 786 772 785 755 732 730 727 694 671 683 750 756 747 747 775 784 786 787 784 783 780 778 778 777 774 777 776 772 776 782 788 795 801 806 811 817 822 827 833 838
812 802 809 811 816 817 798 790 754 709 697 687 674 674 760 778 780 783 789 793 794 793 793 793 790 785 789 785 782 785 782 777 777 783 788 794 799 803 809 814 819 824 829 835
828 813 806 816 818 816 805 788 810 784 740 716 737 784 780 786 789 794 799 801 802 802 799 798 801 791 792 792 793 788 780 783 785 788 790 794 799 803 807 813 818 823 828 833
833 828 811 811 813 819 822 825 797 783 740 695 754 786 795 787 797 803 807 810 810 809 807 808 803 807 799 799 797 794 789 790 793 792 793 796 799 802 808 813 815 824 827 831
829 829 815 810 836 839 826 830 826 816 792 752 733 804 805 801 806 810 815 817 816 815 813 812 810 805 811 801 804 799 795 796 796 798 796 799 802 803 810 815 818 823 827 832
830 831 824 829 839 837 832 838 838 824 790 774 773 824 820 816 816 818 818 820 821 820 819 816 816 811 802 812 806 805 805 805 806 798 797 798 806 806 810 814 818 821 826 829
835 824 820 823 836 824 829 833 841 833 828 799 786 817 823 823 825 825 824 825 825 824 822 822 822 820 819 815 816 806 813 809 798 797 805 803 809 805 815 814 816 819 823 826
837 834 833 834 845 841 841 835 839 835 807 812 815 831 838 837 834 833 831 831 830 828 828 826 824 823 824 832 806 817 813 826 808 813 805 797 816 815 821 816 814 818 822 824
844 843 838 844 841 839 837 840 843 847 841 827 837 843 847 848 846 843 840 837 835 833 832 832 831 833 837 817 817 832 809 817 812 812 810 813 809 811 820 813 814 818 821 824
844 842 836 835 831 835 836 842 842 848 850 845 844 850 851 851 850 848 847 845 842 840 839 838 836 833 831 829 837 814 829 809 821 821 816 815 818 817 821 818 816 818 821 823
849 846 834 823 828 828 832 853 848 850 854 851 842 854 851 849 851 854 854 850 848 847 846 844 842 840 837 834 835 834 831 821 827 826 817 825 816 816 829 823 820 819 822 823
858 850 839 834 823 827 850 850 852 851 854 854 852 854 854 853 853 855 855 854 853 852 850 849 847 845 844 844 841 837 836 830 824 831 828 826 822 822 826 825 822 824 823 824
860 857 847 843 826 839 846 853 858 857 853 857 856 854 853 852 852 853 856 855 853 853 852 851 850 848 846 844 844 841 837 834 834 834 831 829 829 833 830 825 827 825 824 823
851 860 853 843 841 830 851 856 859 858 848 858 858 857 857 852 843 850 855 855 855 854 853 852 850 849 847 846 845 843 843 843 843 839 836 833 830 830 832 823 828 824 825 823
855 850 849 839 836 842 853 857 859 853 861 859 860 860 860 857 858 858 857 857 857 856 855 852 850 849 850 849 846 845 844 844 843 841 839 836 835 834 831 829 829 825 826 824
874 869 844 842 841 841 856 857 859 860 860 861 861 861 862 861 859 859 858 858 858 857 856 855 852 853 852 850 846 846 845 844 842 841 840 838 836 834 832 831 827 826 823 822
867 871 868 867 846 854 857 860 861 864 864 860 863 863 863 862 860 859 860 859 859 855 854 854 852 852 851 850 848 848 846 843 842 840 838 837 834 832 831 829 827 825 824 823
863 878 872 873 855 856 857 860 862 864 863 862 863 865 865 864 861 859 861 861 859 858 857 855 855 853 850 849 849 847 845 843 842 841 839 837 834 832 830 829 828 827 826 826
869 876 863 860 851 854 854 856 857 860 863 863 864 864 863 863 862 862 863 861 858 858 857 857 856 854 852 850 849 848 847 845 843 842 839 838 836 834 831 830 829 829 828 828
864 855 855 846 850 850 849 853 857 860 860 860 862 861 861 863 864 865 863 860 858 856 854 855 854 853 852 850 848 847 846 846 844 843 841 838 836 834 833 831 829 828 828 827
Wind_Speed
8 8 5 12 12 15 13 14 14 26 25 31 28 23 25 13 9 18 18 17 15 12 4 5 12 29 27 31 33 35 35 34 36 32 32 30 29 26 23 21 20 20 19 20
9 7 10 13 14 16 15 13 12 17 23 29 28 24 21 24 9 4 9 20 14 8 5 8 11 9 29 31 31 36 37 36 36 35 30 28 27 26 24 21 22 21 20 21
9 10 15 14 13 13 15 10 11 12 12 23 26 22 22 9 9 6 11 12 11 10 6 8 11 15 11 20 26 28 34 35 34 33 29 24 25 24 22 23 23 23 23 22
4 13 14 13 9 15 11 9 11 13 9 16 25 15 19 19 14 7 7 10 12 11 10 10 10 16 15 12 16 23 31 35 32 35 32 32 27 24 23 23 22 22 21 23
13 12 15 14 13 16 9 18 15 14 10 11 22 16 21 22 19 12 6 10 11 11 11 10 12 16 14 13 10 15 27 31 29 34 31 31 25 26 24 24 26 23 23 20
13 6 9 11 21 4 18 12 13 9 7 9 15 17 21 20 17 13 8 10 12 11 12 12 15 15 20 19 13 9 17 24 28 32 28 29 27 24 24 24 27 25 22 21
11 5 12 20 16 8 21 8 5 9 7 5 14 18 10 14 16 15 10 10 11 11 12 12 13 16 20 22 21 12 11 18 20 24 25 25 23 26 24 28 26 25 25 25
10 6 13 13 7 10 13 6 5 9 5 12 14 10 5 9 12 14 13 11 12 13 12 12 16 20 17 21 23 15 15 17 18 20 19 17 21 18 20 24 24 26 28 27
7 9 5 9 6 13 9 5 7 6 8 6 6 5 11 10 12 13 13 13 13 12 13 14 16 21 20 20 19 19 21 19 15 13 17 17 15 17 20 18 18 18 17 16
4 9 3 7 7 11 5 7 1 4 5 2 6 7 6 6 11 12 12 11 11 12 13 12 16 16 19 18 19 20 21 18 16 13 13 13 15 15 14 16 17 11 12 17
9 4 12 6 8 11 10 6 5 5 4 4 1 4 10 11 11 11 10 10 10 11 11 11 16 19 15 19 19 20 23 18 17 14 14 14 13 15 13 13 12 13 11 11
6 4 10 2 3 2 5 9 6 4 6 3 2 3 9 12 12 12 12 11 9 10 10 10 15 18 23 19 21 21 20 16 17 13 16 16 12 13 11 10 8 9 7 7
10 4 8 4 4 3 6 14 11 8 6 3 4 5 6 10 12 12 12 11 10 11 11 10 14 17 18 19 18 24 19 18 20 20 13 14 12 14 8 8 7 6 6 7
9 5 6 7 3 5 11 15 14 9 4 4 7 10 11 13 13 13 13 12 12 12 12 11 12 15 18 12 23 21 21 14 19 14 18 20 10 11 5 7 8 5 4 4
9 4 4 2 4 5 8 14 13 11 10 7 7 9 9 9 9 11 12 12 13 14 14 13 12 15 13 21 22 15 24 21 20 19 18 16 16 13 9 8 7 5 3 2
8 6 5 11 6 6 6 10 11 8 9 6 5 6 6 7 7 10 11 12 12 13 13 13 15 18 18 19 15 23 20 26 19 18 17 18 14 15 13 9 7 5 3 1
7 7 7 4 0 6 6 7 8 5 7 7 5 4 6 6 6 7 9 10 11 11 12 12 15 16 18 19 18 16 17 20 16 18 19 15 18 17 13 10 8 6 4 3
9 9 4 7 8 3 4 3 4 4 4 5 3 5 6 7 4 3 6 8 8 9 10 12 15 15 14 14 15 15 13 15 17 15 15 16 17 14 13 10 10 8 6 5
3 4 5 4 8 3 4 4 4 5 2 3 4 5 6 7 6 2 5 6 7 8 7 10 12 12 13 13 14 13 14 14 14 15 15 15 12 11 12 12 11 10 9 6
5 6 5 5 4 3 5 4 2 3 3 2 4 5 7 8 4 5 7 7 7 8 8 8 10 11 12 13 13 11 11 11 13 14 14 14 12 12 10 13 11 10 10 8
6 5 4 7 4 4 3 3 1 5 4 2 3 4 5 4 4 8 8 8 7 7 8 9 8 9 11 12 12 11 11 12 13 13 12 11 10 10 9 10 9 9 9 8
3 4 5 5 4 2 2 1 3 3 3 2 2 3 4 6 6 5 7 7 8 7 8 7 6 8 9 10 11 11 11 13 14 13 12 11 11 9 10 10 10 10 8 8
2 2 4 3 4 1 2 3 1 0 3 4 2 3 4 6 5 5 6 6 7 7 8 9 8 8 7 8 10 10 11 13 14 14 13 13 12 10 11 11 11 10 9 8
7 4 3 4 1 4 3 4 5 6 7 3 3 4 5 6 6 6 6 6 6 6 6 8 8 8 8 8 8 9 11 11 12 12 12 12 12 12 11 10 9 9 8 8
3 5 5 7 11 6 9 8 6 6 6 5 7 6 6 5 7 7 7 7 7 7 6 6 6 7 8 8 8 8 9 9 10 12 11 11 11 11 11 9 9 8 7 6
7 5 3 5 0 3 6 3 4 5 6 8 7 7 10 10 8 8 10 10 9 10 9 7 7 7 7 7 8 8 7 8 9 10 10 10 11 11 11 11 10 7 6 9
Wind_Direction
312 275 267 340 310 307 297 289 292 242 205 223 222 231 217 215 222 218 222 207 204 134 85 50 170 167 165 167 165 168 167 172 169 163 165 170 173 172 168 165 163 165 167 170
335 250 357 324 308 306 290 285 288 278 225 212 215 223 221 217 205 238 247 213 147 115 94 55 42 143 166 165 167 170 173 170 172 174 173 171 171 175 168 166 166 172 170 169
317 345 338 326 315 343 295 270 276 272 267 242 220 224 211 149 141 92 44 30 72 80 75 59 50 29 84 144 171 173 177 175 175 174 168 164 169 172 174 176 175 179 171 180
308 354 346 323 323 356 309 299 300 277 281 217 209 214 216 168 162 151 59 44 43 47 50 44 37 38 15 59 146 167 175 175 181 174 169 169 172 173 184 182 178 176 180 191
354 345 350 355 337 313 283 316 300 294 303 271 214 219 203 180 176 163 83 60 48 41 43 39 31 44 19 39 92 142 160 172 176 176 176 175 170 177 181 182 180 182 183 196
336 25 10 354 321 38 343 288 288 270 260 231 221 195 216 187 187 133 92 61 51 40 40 34 31 45 31 33 69 96 144 153 162 172 176 178 178 172 172 176 184 188 186 193
343 74 17 8 348 333 356 325 236 218 222 237 194 198 64 32 12 109 99 67 52 42 39 33 27 31 27 23 35 43 81 113 135 154 169 176 177 184 179 188 184 184 185 187
349 344 16 6 32 312 302 324 316 229 193 217 234 198 92 55 53 66 63 60 52 43 38 37 29 35 21 27 27 29 51 80 108 119 126 144 167 167 175 179 174 183 187 194
324 334 7 51 18 14 345 336 338 285 223 267 93 74 70 65 59 54 53 51 45 38 34 32 28 31 24 27 22 20 48 53 86 105 120 125 129 151 154 141 164 168 171 176
313 301 335 30 4 18 13 350 239 214 274 245 82 55 15 27 60 51 46 43 42 38 36 30 33 18 28 26 23 30 43 48 51 82 99 116 129 127 141 152 141 155 154 165
302 280 317 4 27 2 14 16 337 287 273 320 99 65 327 53 59 66 57 47 41 42 37 31 33 37 22 32 26 30 37 40 52 46 82 84 102 124 116 123 137 158 158 171
338 303 309 24 120 164 11 18 352 296 7 348 63 67 36 48 55 57 56 57 55 50 42 37 32 33 23 24 29 31 28 28 32 41 62 83 83 90 109 125 137 146 150 166
338 339 315 184 198 332 4 13 355 307 247 359 309 108 52 62 54 51 55 51 45 42 44 37 34 37 15 20 19 29 22 14 34 34 38 62 55 77 81 105 117 136 156 156
323 303 344 343 30 314 358 6 12 356 300 32 42 93 38 31 36 38 38 43 42 42 36 37 31 31 18 19 33 17 25 8 36 42 28 57 35 54 65 99 98 103 131 159
357 282 320 288 243 311 3 10 19 22 12 5 85 71 39 34 28 25 27 29 35 33 34 29 28 30 10 28 27 1 23 21 27 27 30 31 29 30 16 67 88 87 107 143
350 307 296 277 215 246 297 15 16 15 1 83 110 74 17 31 40 29 25 22 25 24 22 24 23 19 21 27 7 20 0 28 20 26 30 27 30 25 8 19 59 67 71 113
326 330 314 308 132 291 205 16 2 31 19 344 6 14 344 7 10 21 12 17 18 14 12 13 16 19 15 11 13 14 11 20 23 17 29 17 26 25 355 5 23 39 25 12
325 325 301 302 295 238 72 43 318 330 27 15 5 358 341 333 338 348 8 1 11 7 5 3 4 5 11 13 8 7 15 18 24 15 24 16 23 17 358 4 15 4 4 359
351 307 314 297 311 109 148 39 351 343 101 23 344 350 345 331 301 200 23 356 353 355 1 353 353 354 357 6 7 9 14 17 17 9 9 14 20 1 356 8 360 357 348 345
324 237 270 329 303 321 41 23 1 267 197 29 336 346 342 329 292 72 357 346 343 343 350 351 350 349 358 359 1 6 13 16 12 5 359 359 3 1 353 2 342 350 340 333
325 339 303 319 313 116 54 358 304 247 67 356 336 339 338 342 353 330 332 330 337 335 338 344 348 350 350 353 357 360 4 9 358 355 356 360 358 349 352 346 339 346 335 331
294 324 338 302 271 243 34 213 275 16 337 326 311 319 319 320 325 326 325 327 326 332 334 343 350 346 341 348 357 353 359 353 352 350 352 354 354 356 350 343 346 343 346 342
286 272 302 291 343 39 280 271 284 231 295 303 305 310 311 302 306 324 318 323 323 331 332 335 340 338 347 350 353 346 347 348 348 348 349 350 351 354 352 350 350 350 349 349
183 168 232 322 123 245 255 220 238 213 237 288 281 284 282 281 293 305 305 312 314 323 324 325 324 331 340 347 343 343 341 344 344 343 345 347 349 350 353 352 349 346 347 346
22 158 233 252 269 273 243 234 232 209 225 245 254 254 269 278 281 282 282 286 296 298 302 306 307 315 321 328 330 334 335 336 338 336 340 345 346 347 345 347 340 332 328 334
178 200 223 298 80 253 288 139 156 190 214 222 226 252 240 237 240 253 265 276 278 284 293 288 290 293 299 308 313 318 323 325 325 328 335 340 343 342 342 339 336 334 317 318